This is the latest recevied weather packets stored in our database for station/object DL1MMS-10. If no packets are shown the sender has not sent any weather packets the latest 10 day(s).
| Time | Temp. | Humidity | Pressure | Rain* | Wind** | Luminosity | Snow |
|---|---|---|---|---|---|---|---|
| 1777294024 | 30° C | 22% | 1020.1 hPa | 0 mm | - | - | - |
| 1777293724 | 30° C | 22% | 1020.2 hPa | 0 mm | - | - | - |
| 1777293424 | 29.44° C | 22% | 1020.4 hPa | 0 mm | - | - | - |
| 1777293124 | 30° C | 22% | 1020.3 hPa | 0 mm | - | - | - |
| 1777292823 | 30° C | 22% | 1020.3 hPa | 0 mm | - | - | - |
| 1777292523 | 30.56° C | 22% | 1020.1 hPa | 0 mm | - | - | - |
| 1777292223 | 31.11° C | 21% | 1020.1 hPa | 0 mm | - | - | - |
| 1777291922 | 31.11° C | 21% | 1020.2 hPa | 0 mm | - | - | - |
| 1777291622 | 31.67° C | 21% | 1020.3 hPa | 0 mm | - | - | - |
| 1777291322 | 31.11° C | 21% | 1020.2 hPa | 0 mm | - | - | - |
| 1777291022 | 30.56° C | 22% | 1020.3 hPa | 0 mm | - | - | - |
| 1777290721 | 29.44° C | 23% | 1020.4 hPa | 0 mm | - | - | - |
| 1777290421 | 29.44° C | 23% | 1020.3 hPa | 0 mm | - | - | - |
| 1777290121 | 29.44° C | 25% | 1020.4 hPa | 0 mm | - | - | - |
| 1777289821 | 28.89° C | 24% | 1020.6 hPa | 0 mm | - | - | - |
| 1777289520 | 28.89° C | 25% | 1020.4 hPa | 0 mm | - | - | - |
| 1777289220 | 28.89° C | 25% | 1020.6 hPa | 0 mm | - | - | - |
| 1777288920 | 29.44° C | 25% | 1020.5 hPa | 0 mm | - | - | - |
| 1777288619 | 29.44° C | 26% | 1020.7 hPa | 0 mm | - | - | - |
| 1777288319 | 28.89° C | 26% | 1020.8 hPa | 0 mm | - | - | - |
| 1777288019 | 28.89° C | 26% | 1020.6 hPa | 0 mm | - | - | - |
| 1777287719 | 28.33° C | 26% | 1020.6 hPa | 0 mm | - | - | - |
| 1777287418 | 28.33° C | 27% | 1020.7 hPa | 0 mm | - | - | - |
| 1777287118 | 27.78° C | 28% | 1020.8 hPa | 0 mm | - | - | - |
| 1777286818 | 27.78° C | 28% | 1020.8 hPa | 0 mm | - | - | - |
* Rain latest hour (hover to see other rain measurements)
** Current wind speed in m/s (hover to see current wind gust speed)